| time (UTC) | temp F | wind direction | speed knots | gust knots | rain 1hr in | rain 24hr in | rain mn in | humidity % | barometer mb |
| 20260504081535 | 49 | 22 | 20.0 | 24.3 | 0.00 | 0.00 | 0.00 | 49 | 1014.5 |
| 20260504044528 | 56 | 28 | 11.3 | 15.6 | 0.00 | 0.00 | 0.00 | 36 | 1009.0 |
| 20260504043042 | 57 | 20 | 10.4 | 13.9 | 0.00 | 0.00 | 0.00 | 35 | 1008.5 |
| 20260504041534 | 58 | 10 | 11.3 | 14.8 | 0.00 | 0.00 | 0.00 | 35 | 1008.2 |
| 20260504040032 | 58 | 29 | 9.6 | 12.2 | 0.00 | 0.00 | 0.00 | 34 | 1008.1 |
| 20260504034530 | 59 | 11 | 10.4 | 14.8 | 0.00 | 0.00 | 0.00 | 33 | 1007.6 |
| 20260504033029 | 59 | 22 | 11.3 | 19.1 | 0.00 | 0.00 | 0.00 | 31 | 1007.2 |
| 20260504031530 | 58 | 21 | 7.8 | 12.2 | 0.00 | 0.00 | 0.00 | 27 | 1006.9 |
| 20260504030036 | 61 | 11 | 9.6 | 13.0 | 0.00 | 0.00 | 0.00 | 24 | 1006.7 |
| 20260504024529 | 63 | 20 | 3.5 | 7.0 | 0.00 | 0.00 | 0.00 | 22 | 1006.4 |
| 20260504023030 | 65 | 5 | 7.0 | 10.4 | 0.00 | 0.00 | 0.00 | 21 | 1006.3 |
| 20260504021540 | 67 | 360 | 8.7 | 10.4 | 0.00 | 0.00 | 0.00 | 20 | 1006.3 |
| 20260504020036 | 69 | 355 | 11.3 | 15.6 | 0.00 | 0.00 | 0.00 | 19 | 1006.3 |
| 20260504014529 | 71 | 5 | 12.2 | 15.6 | 0.00 | 0.00 | 0.00 | 18 | 1006.4 |
| 20260504013035 | 72 | 347 | 13.9 | 18.2 | 0.00 | 0.00 | 0.00 | 18 | 1006.5 |
| 20260504011530 | 73 | 355 | 14.8 | 18.2 | 0.00 | 0.00 | 0.00 | 17 | 1006.4 |
| 20260504010030 | 74 | 340 | 14.8 | 20.9 | 0.00 | 0.00 | 0.00 | 17 | 1006.4 |
| 20260504004541 | 75 | 331 | 10.4 | 17.4 | 0.00 | 0.00 | 0.00 | 16 | 1006.6 |
| 20260504003030 | 75 | 323 | 11.3 | 20.0 | 0.00 | 0.00 | 0.00 | 16 | 1006.8 |
| 20260504001534 | 75 | 360 | 9.6 | 20.9 | 0.00 | 0.00 | 0.00 | 15 | 1007.1 |
| 20260504000028 | 76 | 338 | 13.0 | 17.4 | 0.00 | 0.00 | 0.00 | 15 | 1006.9 |
| 20260503234529 | 77 | 331 | 12.2 | 20.0 | 0.00 | 0.00 | 0.00 | 15 | 1007.1 |
| 20260503233030 | 76 | 329 | 13.0 | 17.4 | 0.00 | 0.00 | 0.00 | 15 | 1007.1 |
| 20260503231530 | 76 | 323 | 13.9 | 20.9 | 0.00 | 0.00 | 0.00 | 15 | 1007.4 |
| 20260503230034 | 76 | 293 | 13.0 | 19.1 | 0.00 | 0.00 | 0.00 | 16 | 1007.5 |
| 20260503224530 | 76 | 282 | 11.3 | 16.5 | 0.00 | 0.00 | 0.00 | 16 | 1007.7 |
| 20260503223031 | 75 | 300 | 8.7 | 20.0 | 0.00 | 0.00 | 0.00 | 17 | 1007.9 |
| 20260503221535 | 75 | 291 | 12.2 | 16.5 | 0.00 | 0.00 | 0.00 | 16 | 1008.0 |
| 20260503220037 | 75 | 325 | 11.3 | 18.2 | 0.00 | 0.00 | 0.00 | 15 | 1008.1 |
| 20260503214542 | 75 | 236 | 12.2 | 20.0 | 0.00 | 0.00 | 0.00 | 15 | 1008.3 |
| 20260503213034 | 74 | 268 | 9.6 | 18.2 | 0.00 | 0.00 | 0.00 | 17 | 1008.6 |
| 20260503211532 | 73 | 269 | 10.4 | 23.5 | 0.00 | 0.00 | 0.00 | 17 | 1008.9 |
| 20260503210030 | 74 | 271 | 12.2 | 19.1 | 0.00 | 0.00 | 0.00 | 17 | 1009.1 |
| 20260503204532 | 73 | 265 | 13.0 | 21.7 | 0.00 | 0.00 | 0.00 | 17 | 1009.4 |
| 20260503203032 | 74 | 281 | 12.2 | 21.7 | 0.00 | 0.00 | 0.00 | 17 | 1009.6 |
| 20260503201532 | 73 | 299 | 15.6 | 22.6 | 0.00 | 0.00 | 0.00 | 16 | 1009.8 |
| 20260503200032 | 71 | 309 | 13.0 | 24.3 | 0.00 | 0.00 | 0.00 | 18 | 1009.8 |
| 20260503194534 | 72 | 222 | 11.3 | 20.9 | 0.00 | 0.00 | 0.00 | 19 | 1010.1 |
| 20260503193029 | 73 | 277 | 8.7 | 20.9 | 0.00 | 0.00 | 0.00 | 18 | 1010.3 |
| 20260503191528 | 71 | 244 | 7.8 | 22.6 | 0.00 | 0.00 | 0.00 | 20 | 1010.4 |
| 20260503190040 | 71 | 218 | 10.4 | 20.0 | 0.00 | 0.00 | 0.00 | 20 | 1010.7 |
| 20260503184530 | 71 | 229 | 12.2 | 22.6 | 0.00 | 0.00 | 0.00 | 20 | 1010.8 |
| 20260503183037 | 70 | 246 | 11.3 | 20.9 | 0.00 | 0.00 | 0.00 | 20 | 1011.1 |
| 20260503181549 | 70 | 227 | 9.6 | 21.7 | 0.00 | 0.00 | 0.00 | 22 | 1011.4 |
| 20260503180041 | 70 | 283 | 13.9 | 21.7 | 0.00 | 0.00 | 0.00 | 22 | 1011.5 |
| 20260503174527 | 69 | 284 | 7.0 | 12.2 | 0.00 | 0.00 | 0.00 | 27 | 1011.6 |
| 20260503173030 | 67 | 241 | 7.8 | 12.2 | 0.00 | 0.00 | 0.00 | 30 | 1011.9 |
| 20260503171528 | 66 | 260 | 7.8 | 15.6 | 0.00 | 0.00 | 0.00 | 31 | 1011.9 |